Home   Weather   Meppen   Past weeks

Flag for Germany Past Weather in Meppen, Lower Saxony, Germany — Yesterday and Last 2 Weeks

34 °F


Feels Like: 34 °F
Forecast: 36 / 50 °F
Wind: No wind

Location: Meppen

Current Time: Oct 26, 2016 at 12:54:53 AM

Latest Report: Oct 26, 2016 at 12:00 AM

Visibility: 0 mi

Pressure: 30.35 "Hg

Humidity: 97%

Dew Point: 33 °F

Location of MeppenLocation

Past Weather in Meppen — Graph


Meppen Temperature Yesterday

Maximum temperature yesterday: 52 °F (at 4:00 PM)
Minimum temperature yesterday: 36 °F (at 10:00 PM)
Average temperature yesterday: 45 °F

High & Low Weather Summary for the Past Weeks

High63 °F (Oct 16, 4:00 PM)97% (Oct 11, 3:00 AM)30.34 "Hg (Oct 11, 3:00 AM)
Low33 °F (Oct 11, 1:00 AM)55% (Oct 16, 4:00 PM)29.71 "Hg (Oct 15, 6:00 AM)
Average47 °F87%30.04 "Hg
* Reported Oct 10 10:00 PM — Oct 25 10:00 PM, Meppen, Weather by CustomWeather, © 2016

Note: Actual official high and low records may vary slightly from our data, if they occured in-between our weather recording intervals... More about our weather records


Meppen Weather History for the Previous 24 Hours

Scroll right to see more
Time TempWeatherWind HumidityBarometerVisibility
10:00 PM
Tue, Oct 25
36 °FChilly.No wind96%30.34 "Hg0 mi
9:00 PM38 °FChilly.No wind96%30.33 "Hg0 mi
7:00 PM42 °FQuite cool.No wind94%30.30 "Hg1 mi
6:00 PM46 °FCool.No wind88%30.29 "Hg4 mi
4:00 PM52 °FPassing clouds.N/A68%30.25 "Hg9 mi
3:00 PM52 °FPassing clouds.2 mph69%30.24 "Hg9 mi
1:00 PM51 °FScattered clouds.3 mph79%30.23 "Hg4 mi
12:00 PM48 °FFog.2 mph85%30.22 "Hg4 mi
10:00 AM45 °FFog.2 mph93%30.19 "Hg1 mi
9:00 AM45 °FLow clouds.2 mph94%30.17 "Hg1 mi
7:00 AM45 °FLow clouds.1 mph94%30.10 "Hg2 mi
6:00 AM44 °FDrizzle. Low clouds.2 mph96%30.09 "Hg1 mi
4:00 AM45 °FQuite cool.2 mph95%30.07 "Hg1 mi
3:00 AM45 °FQuite cool.2 mph95%30.05 "Hg1 mi
1:00 AM45 °FCool.2 mph92%30.04 "Hg2 mi
12:00 AM46 °FCool.2 mph91%30.02 "Hg3 mi
Weather by CustomWeather, © 2016

See weather overviewHow to use our weather pages